Find Starlink 30899

NORAD ID: 58420 Int'l Des: 2023-180 Owner: SPXS Country: US Constellation: starlink operational
LEOCIRCULAR

Live-Position

3D-Globus wird geladen...

Über Starlink 30899

Beschreibung wird geladen...

Nächste Überflüge

Passes for default location (London). Set your location on the main map for personalized predictions.

Höhenverlauf

Loading altitude history...

Zweizeiliger Elementsatz

1 58420U 23180U 26130.11368852 .00000364 00000-0 22750-4 0 9992
2 58420 43.0041 65.3423 0001077 270.1337 89.9391 15.27571006136906
Epoch: 10. Mai 2026 • Age: 10 hours

Aktueller Status

Höhe 484.6 km
Geschwindigkeit 7.63 km/s
Subsatellitenpunkt 32.50°N, 52.01°E
Startdatum 22. Nov. 2023
Alter 2.4 years
Typ internet

Technische Details

Klassifizierung Payload
Masse 730.00 kg
Trockenmasse 700.00 kg
Gesamtmasse 730.00 kg
Länge 0.30 m
Durchmesser 4.10 m
Spannweite 29.00 m
Form Box + pan
Hersteller SPXS
Bus-Typ Starlink V2M
Phasenstatus In Orbit
Besitzer/Staat SPXS/US

Most Searched